weather.gov     
National Weather Service

Regional Weather Roundup
NWS Homepage
This page is being discontinued on March 12, 2014.
The same data is available at this site. Please update your bookmarks.
Thank you, and we apologize for the inconvenience.
Please send an email to SR-SRH.Webmaster@noaa.gov with any concerns.


Current Version
Previous Version:    01  02  03  04  05  06  07  08  09  10  11  12  13  14  15  16  17  18  19  20  21  22  23  24  25  26  
[Printable]
849
ASUS41 KPHI 240910
RWRPHI

REGIONAL WEATHER ROUNDUP
NATIONAL WEATHER SERVICE MOUNT HOLLY NJ
500 AM EDT FRI OCT 24 2014

NOTE:  "FAIR" INDICATES FEW OR NO CLOUDS BELOW 12,000 FEET WITH NO
SIGNIFICANT WEATHER AND/OR OBSTRUCTIONS TO VISIBILITY.

 * = STATION DOES NOT REPORT PRECIPITATION (E.G. RAIN, SNOW, ETC.)
        OR FOG.

NJZ015>026-241000-
SOUTHERN NEW JERSEY

CITY           SKY/WX    TMP DP  RH WIND       PRES   REMARKS
POMONA         CLEAR     46  43  89 NW6       29.82S
RIO GRANDE*    MOCLDY    55  43  62 NW8       29.85R
MILLVILLE      PTCLDY    46  43  89 CALM      29.83S
WRIGHTSTOWN    CLOUDY    51  45  80 NW10      29.81R
MOUNT HOLLY    CLOUDY    54  45  71 VRB6      29.83R
TRENTON        CLOUDY    52  44  74 NW6       29.82S

$$
NJZ001>014-241000-
NORTHERN NEW JERSEY

CITY           SKY/WX    TMP DP  RH WIND       PRES   REMARKS
SUSSEX         CLOUDY    52  42  69 N3        29.81S
ANDOVER*         N/A     49  43  80 N7        29.82S
MORRISTOWN     PTCLDY    52  43  71 NW9       29.81S
NEWARK         MOCLDY    50  43  77 W7        29.80R
TETERBORO      PTCLDY    51  42  71 NW8       29.79S
CALDWELL       PTCLDY    49  41  74 NW7       29.81R
SOMERVILLE     CLOUDY    52  43  71 CALM      29.81R
ALLAIRE*       MOCLDY    48  39  71 NW7       29.80R
TOMS RIVER*    CLOUDY    52  45  76 NW3       29.82R

$$
PAZ043-044-047-054-055-060>062-066>071-241000-
EASTERN PENNSYLVANIA

CITY           SKY/WX    TMP DP  RH WIND       PRES   REMARKS
PHILADELPHIA   CLOUDY    57  44  62 NW10      29.85R
NORTH PHILA    CLOUDY    56  44  64 NW7       29.85R
BLUE BELL      CLOUDY    55  46  71 NW7       29.83S
DOYLESTOWN     CLOUDY    52  45  77 NW9G21    29.83R
QUAKERTOWN*    CLOUDY    54  45  71 N12G17    29.85R
POTTSTOWN      CLOUDY    55  44  66 NW15      29.86R
LANCASTER      MOCLDY    55  42  61 NW12      29.88S
COATESVILLE    CLOUDY    55  46  71 NW13G23   29.86S
READING        CLOUDY    56  44  64 N14G23    29.86S
ALLENTOWN      CLOUDY    54  43  66 NW13G20   29.85R
MOUNT POCONO   CLOUDY    46  42  86 NW24G36   29.80F
WILKES BARRE   CLOUDY    51  43  74 NW10      29.87S

$$
DEZALL-MDZ008-012-015-019-020-241000-
DELAWARE AND EASTERN MARYLAND

CITY           SKY/WX    TMP DP  RH WIND       PRES   REMARKS
WILMINGTON     CLOUDY    57  45  64 N10       29.85S
DOVER          PTCLDY    53  45  74 W7        29.84R
GEORGETOWN     CLOUDY    55  46  71 VRB3      29.87R
EASTON         PTCLDY    57  46  66 NW13      29.92R
PATUXENT       CLEAR     55  41  59 W15       29.91R
OCEAN CITY     CLOUDY    53  46  77 W6        29.86R
WALLOPS ISLAND CLEAR     55  46  71 NW10      29.89R
CAMBRIDGE      PTCLDY    59  43  55 NW12G18   29.89R
SALISBURY      CLOUDY    58  46  64 NW8       29.87S

$$
PAZ001-021-NYZ056-072-MDZ011-DCZ001-241000-
OTHER NEARBY LOCATIONS

CITY           SKY/WX    TMP DP  RH WIND       PRES   REMARKS
HARRISBURG     MOCLDY    56  42  59 NW14      29.90R
STATE COLLEGE  PTCLDY    48  40  75 CALM      29.99R
WILLIAMSPORT   CLOUDY    55  43  63 W8        29.92R
BINGHAMTON     CLOUDY    45  41  86 N15       29.89R
NEW YORK CITY  PTCLDY    51  42  71 W3        29.81S
BALTIMORE      PTCLDY    54  42  64 NW7       29.89S
WASHINGTON DC  CLEAR     57  41  55 NW10      29.94R

$$




U.S. Dept. of Commerce
NOAA National Weather Service
1325 East West Highway
Silver Spring, MD 20910
E-mail: w-nws.webmaster@noaa.gov
Page last modified: May 16, 2007
NATIONAL WEATHER SERVICE: for Safety, for Work, for Fun - FOR LIFE